User: anonymous   Login
Location: Radomski Observatory
(40.2854°N, 79.5145°W)
Time: 03:35:05
(UTC-04:00)
Language:

Uosat F - Orbit

View from above orbital plane
View from above orbital plane
View from above satellite
View from above satellite

Ground track
Ground track

The orbit data is extracted from the following two-line orbital elements,

1 21575U 91050B   17262.94333347 +.00000025 +00000-0 +22285-4 0  9999
2 21575 098.7547 281.5962 0007745 026.5684 333.5899 14.40812417374724
Epoch (UTC): 19 September 2017 22:38:24
Eccentricity: 0.0007745
inclination: 98.7547°
perigee height: 750 km
apogee height: 761 km
right ascension of ascending node: 281.5962°
argument of perigee: 26.5684°
revolutions per day: 14.40812417
mean anomaly at epoch: 333.5899°
orbit number at epoch: 37472

The dashed part of the orbit path shows where the satellite is in the earth's shadow,  

DLR